[[{"header":{"parameterUnit":"m.s-1","parameterCategory":1,"la1":30.2991,"la2":30.254,"lo1":-89.0895,"lo2":-89.0444,"dy":0.0017,"dx":0.0017,"nx":28,"ny":28,"refTime":"2024-05-30T03:00:00:Z","depth":0,"parameterNumber":2,"parameterNumberName":"U-component_of_WINDS"},"data":[0,0,0,0,0,0,0,0,0,0,0,0,0,0,0,0,0,0,0,0,0,0,0,0,0,0,0,0,0,0,0,0,0,0,0,0,0,0,0,0,0,0,0,0,0,0,0,0,0,0,0,0,0,0,0,0,0,0,-4.425,-4.425,0,-4.4302,-4.4302,-4.4303,-4.4256,-4.4254,-4.4252,-4.4251,-4.4302,-4.4305,-4.4308,0,0,0,0,0,0,0,0,0,0,0,0,0,-4.411,-4.4112,-4.425,-4.425,-4.4251,-4.4301,-4.4302,-4.4303,-4.4257,-4.4254,-4.4252,-4.425,-4.43,-4.4304,-4.4308,0,0,0,0,0,0,0,0,0,0,0,0,0,-4.4167,-4.4113,-4.425,-4.4234,-4.4233,-4.4301,-4.4302,-4.4303,-4.4257,-4.4254,-4.4251,-4.4249,-4.4299,-4.4304,-4.4308,-4.4394,0,0,-4.4323,-4.4325,0,0,0,0,0,0,0,0,-4.4164,-4.4172,-4.4236,-4.4235,-4.4234,-4.427,-4.4271,-4.4333,-4.4258,-4.4248,-4.4251,-4.4247,-4.4293,-4.4298,-4.4314,-4.4396,-4.4398,-4.4323,-4.4326,-4.4328,-4.4329,0,0,0,0,0,0,0,-4.416,-4.4169,-4.427,-4.4237,-4.4236,-4.4224,-4.4229,-4.4283,-4.4286,-4.4249,-4.4245,-4.4252,-4.4292,-4.4309,-4.4315,-4.4399,-4.4323,-4.4327,-4.433,-4.4332,-4.4554,-4.4557,0,0,0,0,0,0,-4.4158,-4.4167,-4.4268,-4.4272,-4.4191,-4.4229,-4.4235,-4.4261,-4.4285,-4.4286,-4.4255,-4.425,-4.4303,-4.4309,-4.4316,-4.4417,-4.4328,-4.4332,-4.4335,-4.4551,-4.4555,-4.4558,0,0,0,0,0,0,-4.4155,-4.4167,-4.4266,-4.4218,-4.423,-4.4234,-4.4265,-4.4264,-4.4281,-4.429,-4.429,-4.4272,-4.4301,-4.431,-4.4375,-4.4418,-4.4334,-4.4339,-4.4547,-4.4552,-4.4556,-4.462,0,0,0,0,0,0,-4.4151,-4.4166,-4.4199,-4.4219,-4.4233,-4.4325,-4.4267,-4.4267,-4.4289,-4.4284,-4.4306,-4.4307,-4.4299,-4.4368,-4.438,-4.4423,-4.4342,-4.4543,-4.4549,-4.4555,-4.4614,-4.4626,-4.4636,0,0,0,0,0,-4.4146,-4.4214,-4.4201,-4.4213,-4.4274,-4.4327,-4.4335,-4.4326,-4.4293,-4.4325,-4.4331,-4.4306,-4.4412,-4.4375,-4.4388,-4.4433,-4.4541,-4.4548,-4.4555,-4.4609,-4.4624,-4.4636,0,0,0,0,0,0,-4.4198,-4.4217,-4.4202,-4.4279,-4.4302,-4.4319,-4.436,-4.4342,-4.4374,-4.4367,-4.4354,-4.4359,-4.4428,-4.4438,-4.4396,-4.4517,-4.4471,-4.4481,-4.4508,-4.4522,-4.4533,-4.4528,-4.4346,0,0,0,0,0,-4.4218,-4.4261,-4.4275,-4.4341,-4.4354,-4.4355,-4.4378,-4.4369,-4.4392,-4.4402,-4.4412,-4.4435,-4.4473,-4.4499,-4.4535,-4.4616,-4.462,-4.4654,-4.4665,-4.4674,-4.4682,-4.4725,-4.474,-4.4581,-4.4581,-4.4581,0,0,-4.426,-4.4276,-4.4303,-4.4352,-4.4369,-4.4412,-4.4363,-4.4412,-4.4443,-4.4409,-4.447,-4.448,-4.4504,-4.4578,-4.4611,-4.4588,-4.4727,-4.4683,-4.469,-4.4693,-4.4734,-4.4749,-4.4762,-4.4586,-4.4585,-4.4584,0,0,-4.4359,-4.4376,-4.4433,-4.4451,-4.4478,-4.4479,-4.4493,-4.4514,-4.4518,-4.4581,-4.4555,-4.4594,-4.466,-4.4679,-4.4697,-4.4806,-4.4783,-4.4818,-4.4876,-4.4918,-4.4931,-4.4942,-4.4979,-4.4993,-4.4826,-4.4826,-4.4826,0,-4.4408,-4.4473,-4.4464,-4.4515,-4.4536,-4.4509,-4.4566,-4.4584,-4.4621,-4.4636,-4.4611,-4.4695,-4.4709,-4.4786,-4.4813,-4.4829,-4.4844,-4.4814,-4.493,-4.4941,-4.4951,-4.4986,-4.5,-4.483,-4.483,-4.4829,-4.4829,0,-4.4531,-4.4577,-4.462,-4.4657,-4.4684,-4.4737,-4.4736,-4.4765,-4.4755,-4.4758,-4.4823,-4.484,-4.4879,-4.4897,-4.4887,-4.4973,-4.4958,-4.4932,-4.4884,-4.497,-4.5003,-4.5016,-4.4836,-4.4834,-4.4833,-4.4832,0,0,-4.4661,-4.4694,-4.471,-4.4726,-4.4755,-4.4789,-4.4842,-4.4881,-4.4905,-4.4933,-4.4976,-4.5034,-4.501,-4.5031,-4.5023,-4.5061,-4.5144,-4.503,-4.503,-4.5049,-4.5239,-4.5257,-4.5273,-4.5131,-4.5134,-4.5136,-4.5236,0,-4.4759,-4.4851,-4.4845,-4.4931,-4.4973,-4.4949,-4.4994,-4.5017,-4.5022,-4.5058,-4.5064,-4.5105,-4.5071,-4.5083,-4.512,-4.5126,-4.5182,-4.5119,-4.5169,-4.5171,-4.5161,-4.529,-4.5309,-4.5403,-4.5249,-4.5251,-4.5253,0,-4.4886,-4.4918,-4.5008,-4.5031,-4.5048,-4.5089,-4.5125,-4.516,-4.5185,-4.5186,-4.5211,-4.5198,-4.525,-4.5205,-4.5277,-4.5235,-4.5255,-4.5262,-4.5266,-4.5268,-4.5215,-4.5294,-4.5433,-4.5447,-4.5274,-4.5272,-4.527,0,-4.4969,-4.5035,-4.5098,-4.5113,-4.5141,-4.5171,-4.5184,-4.5206,-4.5231,-4.5262,-4.5277,-4.5315,-4.5334,-4.5363,-4.536,-4.5327,-4.5434,-4.5388,-4.5435,-4.5435,-4.5456,-4.5454,-4.5598,-4.5474,-4.5473,-4.5473,-4.5473,0,-4.5078,-4.5134,-4.5136,-4.5174,-4.5236,-4.523,-4.5291,-4.5301,-4.5321,-4.5361,-4.5343,-4.538,-4.5375,-4.5412,-4.541,-4.547,-4.548,-4.5481,-4.548,-4.5482,-4.5481,-4.5493,-4.5485,-4.5477,-4.5476,-4.5475,-4.5475,0,-4.5181,-4.5184,-4.525,-4.5273,-4.528,-4.5324,-4.5343,-4.5379,-4.5384,-4.5434,-4.5445,-4.5453,-4.5496,-4.5497,-4.5546,-4.5545,-4.5618,-4.561,-4.5609,-4.5607,-4.5653,-4.5648,-4.5808,-4.5828,-4.5692,-4.5694,-4.5695,0,-4.5249,-4.5291,-4.5318,-4.5344,-4.5359,-4.54,-4.5425,-4.5421,-4.5448,-4.548,-4.5512,-4.5554,-4.5587,-4.5658,-4.5667,-4.5705,-4.5697,-4.575,-4.5702,-4.5703,-4.5695,-4.5692,-4.5696,-4.5759,-4.576,-4.5761,-4.5762,0,-4.5369,-4.5369,-4.5406,-4.5443,-4.5474,-4.5503,-4.553,-4.5552,-4.5552,-4.5583,-4.5627,-4.5653,-4.5704,-4.5745,-4.5783,-4.5796,-4.5779,-4.5778,-4.5791,-4.5792,-4.5789,-4.5789,-4.5632,-4.5774,-4.5773,-4.5772,-4.5771,-4.5771,-4.5455,-4.5491,-4.5516,-4.5558,-4.5578,-4.5605,-4.564,-4.565,-4.5687,-4.5728,-4.5724,-4.5774,-4.5798,-4.5846,-4.5863,-4.5901,-4.5883,-4.5901,-4.5906,-4.591,-4.5914,-4.5785,-4.5908,-4.5908,-4.5908,-4.5907,-4.5907,0,-4.5572,-4.5588,-4.5626,-4.5665,-4.5698,-4.5682,-4.5711,-4.5739,-4.5783,-4.5808,-4.5842,-4.5893,-4.5933,-4.5947,-4.5987,-4.6015,-4.6008,-4.6025,-4.6021,-4.6024,-4.5929,-4.5913,-4.603,-4.6029,-4.6029,-4.6029,-4.6029,-4.6029,-4.5637,-4.5698,-4.5701,-4.5772,-4.5787,-4.5835,-4.5854,-4.5878,-4.5897,-4.5956,-4.599,-4.5999,-4.6019,-4.606,-4.6097,-4.61,-4.6114,-4.6134,-4.6134,-4.6044,-4.6031,-4.6019,-4.6004,-4.6138,-4.6138,-4.6225,-4.6226,-4.6227]},{"header":{"parameterUnit":"m.s-1","parameterCategory":1,"la1":30.2991,"la2":30.254,"lo1":-89.0895,"lo2":-89.0444,"dy":0.0017,"dx":0.0017,"nx":28,"ny":28,"refTime":"2024-05-30T03:00:00:Z","depth":0,"parameterNumber":3,"parameterNumberName":"V-component_of_WINDS"},"data":[0,0,0,0,0,0,0,0,0,0,0,0,0,0,0,0,0,0,0,0,0,0,0,0,0,0,0,0,0,0,0,0,0,0,0,0,0,0,0,0,0,0,0,0,0,0,0,0,0,0,0,0,0,0,0,0,0,0,3.3936,3.3936,0,3.3968,3.3968,3.3969,3.3967,3.3966,3.3966,3.3965,3.3995,3.3997,3.3998,0,0,0,0,0,0,0,0,0,0,0,0,0,3.3871,3.3872,3.3936,3.3936,3.3937,3.3968,3.3968,3.3969,3.3967,3.3966,3.3966,3.3965,3.3995,3.3997,3.3998,0,0,0,0,0,0,0,0,0,0,0,0,0,3.3901,3.3873,3.3936,3.3939,3.394,3.3968,3.3969,3.3969,3.3967,3.3966,3.3966,3.3965,3.3995,3.3996,3.3998,3.4024,0,0,3.4004,3.4005,0,0,0,0,0,0,0,0,3.3899,3.3903,3.3939,3.3939,3.394,3.3963,3.3957,3.3987,3.3967,3.3957,3.3965,3.3965,3.3985,3.3988,3.3995,3.4025,3.4026,3.4004,3.4005,3.4006,3.4006,0,0,0,0,0,0,0,3.3897,3.3902,3.3949,3.3939,3.394,3.3939,3.3942,3.3962,3.3974,3.3957,3.3957,3.3961,3.3985,3.3993,3.3996,3.4027,3.4004,3.4006,3.4007,3.4007,3.408,3.4081,0,0,0,0,0,0,3.3894,3.39,3.3947,3.3949,3.3917,3.3941,3.3945,3.3956,3.3974,3.3976,3.3962,3.3961,3.399,3.3994,3.3997,3.4028,3.4006,3.4008,3.4009,3.408,3.4081,3.4082,0,0,0,0,0,0,3.3893,3.3899,3.3946,3.3925,3.3931,3.3943,3.3956,3.3957,3.3965,3.3977,3.3979,3.3968,3.399,3.3994,3.4017,3.4029,3.4009,3.401,3.4079,3.408,3.4081,3.4091,0,0,0,0,0,0,3.3891,3.3898,3.3908,3.3925,3.3932,3.3967,3.3956,3.3958,3.3969,3.3968,3.3984,3.3986,3.399,3.4015,3.4019,3.4031,3.4012,3.4078,3.4079,3.4081,3.409,3.4093,3.4095,0,0,0,0,0,3.3889,3.3909,3.3909,3.3914,3.3945,3.3967,3.3971,3.3976,3.397,3.398,3.3988,3.3985,3.4028,3.4017,3.4022,3.4035,3.4077,3.4079,3.4081,3.4089,3.4092,3.4095,0,0,0,0,0,0,3.3891,3.3911,3.3911,3.3937,3.3951,3.3967,3.398,3.398,3.3995,3.3993,3.3998,3.4002,3.4026,3.4033,3.4021,3.4061,3.4051,3.4054,3.4056,3.4059,3.4061,3.4059,3.4013,0,0,0,0,0,3.3895,3.3913,3.3929,3.395,3.3957,3.3967,3.3977,3.3981,3.3994,3.4,3.401,3.4023,3.4039,3.4049,3.4065,3.4091,3.4095,3.4103,3.4105,3.4108,3.411,3.4125,3.4129,3.4088,3.4088,3.4088,0,0,3.3902,3.3916,3.3926,3.3951,3.3962,3.398,3.3972,3.3991,3.4004,3.4002,3.4025,3.4033,3.4048,3.4073,3.4085,3.408,3.4122,3.411,3.4111,3.4113,3.4127,3.4131,3.4134,3.4089,3.4089,3.4088,0,0,3.3925,3.3937,3.3957,3.3968,3.3986,3.3993,3.3998,3.4015,3.402,3.4044,3.4043,3.4059,3.4087,3.4098,3.4107,3.4136,3.4134,3.4141,3.4154,3.4169,3.4172,3.4175,3.4186,3.4189,3.4143,3.4144,3.4144,0,3.3932,3.3959,3.3966,3.3986,3.3997,3.3999,3.4019,3.4029,3.405,3.4058,3.4053,3.4089,3.4099,3.4127,3.4134,3.4142,3.4147,3.4139,3.4171,3.4174,3.4177,3.4187,3.4191,3.4144,3.4144,3.4144,3.4144,0,3.3967,3.3986,3.4,3.4022,3.4035,3.4054,3.4064,3.4076,3.4079,3.4086,3.4111,3.4123,3.4142,3.4149,3.4151,3.4178,3.4174,3.417,3.416,3.4182,3.4191,3.4195,3.4145,3.4145,3.4145,3.4145,0,0,3.399,3.4018,3.4023,3.4034,3.4054,3.4068,3.4088,3.4108,3.4118,3.4133,3.415,3.4175,3.4172,3.4182,3.4186,3.4199,3.4222,3.4193,3.4193,3.4198,3.4252,3.4255,3.426,3.4221,3.4222,3.4223,3.4251,0,3.4015,3.4052,3.406,3.4091,3.4109,3.4111,3.4129,3.4143,3.4151,3.4167,3.4176,3.4193,3.4187,3.4194,3.4207,3.4216,3.4233,3.4214,3.4236,3.4237,3.4232,3.4265,3.4267,3.4294,3.4255,3.4256,3.4256,0,3.4048,3.4066,3.41,3.4119,3.4127,3.4143,3.4162,3.4177,3.4194,3.4199,3.4212,3.4214,3.4235,3.4225,3.4253,3.4241,3.425,3.4256,3.4258,3.4259,3.4247,3.4267,3.4302,3.4306,3.4262,3.4262,3.4261,0,3.4062,3.4095,3.4119,3.4128,3.4151,3.4162,3.4172,3.4188,3.42,3.4217,3.4225,3.4243,3.4253,3.4267,3.4275,3.4267,3.4303,3.4293,3.4307,3.4307,3.4314,3.4313,3.4351,3.4321,3.4321,3.4321,3.4321,0,3.4089,3.4109,3.4126,3.4141,3.4164,3.4173,3.4195,3.4205,3.422,3.4236,3.4239,3.4255,3.4264,3.4281,3.4287,3.431,3.4314,3.4319,3.432,3.4318,3.4318,3.4324,3.4322,3.4322,3.4322,3.4321,3.4321,0,3.4108,3.412,3.4147,3.4167,3.4173,3.4189,3.4207,3.4221,3.423,3.4251,3.4257,3.427,3.429,3.43,3.4324,3.4328,3.4354,3.4354,3.4349,3.4349,3.4363,3.4361,3.4405,3.4412,3.4378,3.4378,3.4378,0,3.4124,3.414,3.4163,3.4175,3.4186,3.4205,3.4218,3.4228,3.4241,3.4262,3.4274,3.4294,3.4311,3.4343,3.4355,3.4373,3.4374,3.4388,3.4376,3.4375,3.4374,3.4373,3.4375,3.439,3.439,3.439,3.4391,0,3.4151,3.4157,3.4175,3.4197,3.4212,3.4229,3.4246,3.4255,3.4268,3.4282,3.4304,3.4317,3.4343,3.4363,3.4383,3.4393,3.4394,3.4395,3.4399,3.4397,3.4393,3.4395,3.4354,3.4393,3.4393,3.4393,3.4393,3.4392,3.4169,3.4184,3.4203,3.4224,3.4238,3.4254,3.4269,3.4281,3.4299,3.4322,3.4327,3.4349,3.4366,3.4394,3.4404,3.4422,3.4418,3.4424,3.4426,3.4427,3.4428,3.4391,3.4425,3.4425,3.4425,3.4425,3.4425,0,3.4196,3.4209,3.4229,3.4253,3.427,3.4271,3.429,3.4303,3.4324,3.434,3.4358,3.4382,3.4403,3.4417,3.4437,3.4448,3.4449,3.4453,3.4452,3.4455,3.443,3.4424,3.4452,3.4452,3.4452,3.4452,3.4452,3.4452,3.4212,3.4238,3.4246,3.4279,3.4291,3.4315,3.4326,3.434,3.4354,3.4382,3.4399,3.4409,3.4424,3.4446,3.4465,3.4468,3.4475,3.448,3.4483,3.4459,3.4456,3.4454,3.4448,3.4481,3.4481,3.4506,3.4507,3.4507]}]]